Regional Weather Roundup
Issued by NWS Little Rock, AR

Home | Current Version | Previous Version | Text Only | Print | Product List | Glossary On
Versions: 1 2 3 4 5 6 7 8 9 10 11 12 13 14 15 16 17 18 19 20 21 22 23 24 25 26 27 28 29 30 31 32 33 34 35 36 37 38 39 40 41 42 43 44 45 46 47 48 49 50
000
ASUS44 KLZK 220405
RWRLZK

WEATHER ROUNDUP FOR ARKANSAS
NATIONAL WEATHER SERVICE LITTLE ROCK AR
1100 PM CDT THU AUG 21 2014

NOTE: "FAIR" INDICATES FEW OR NO CLOUDS BELOW 12,000 FEET WITH NO
SIGNIFICANT WEATHER AND/OR OBSTRUCTIONS TO VISIBILITY.

ARZ001-003-010-029-220500-
NORTHWEST ARKANSAS

CITY           SKY/WX    TMP DP  RH WIND       PRES   REMARKS
FAYETTEVILLE   CLEAR     79  72  79 S9        30.05R
FORT SMITH     CLEAR     82  73  74 E3        30.00S HX  87
HARRISON       CLEAR     78  71  79 S6        30.06R
BENTONVILLE    CLEAR     81  70  69 S6        30.05S
ROGERS         CLEAR     79  70  74 S9        30.06R
SILOAM SPGS    CLEAR     79  66  65 S9        30.05S
HIGHFILL       CLEAR     78  70  76 S7        30.04R
$$

ARZ004-005-016-220500-
NORTH CENTRAL ARKANSAS

CITY           SKY/WX    TMP DP  RH WIND       PRES   REMARKS
BATESVILLE     CLEAR     82  72  69 SW7       30.03R HX  87
FLIPPIN        PTCLDY    81  66  61 S5        30.04R
MTN HOME       CLEAR     80  70  71 SW6       30.03R
$$

ARZ040-041-220500-
WEST CENTRAL ARKANSAS

CITY           SKY/WX    TMP DP  RH WIND       PRES   REMARKS
MENA           CLEAR     86  72  62 CALM      30.06S HX  92
MOUNT IDA      CLEAR     83  73  72 CALM      30.02S HX  89
$$

ARZ009-017-025-026-028-220500-
NORTHEAST ARKANSAS

CITY           SKY/WX    TMP DP  RH WIND       PRES   REMARKS
CORNING        FAIR      81  73  78 SW12      30.02S HX  85
JONESBORO      CLEAR     80  73  79 SW7       30.02R
NEWPORT        CLEAR     81  74  79 SW7       30.03S HX  86
WALNUT RIDGE   CLEAR     81  72  74 SW8       30.02R
BLYTHEVILLE    CLEAR     78  76  93 SW6       30.03S
$$

ARZ022-023-033-042-044-220500-
CENTRAL ARKANSAS

CITY           SKY/WX    TMP DP  RH WIND       PRES   REMARKS
LITTLE ROCK    PTCLDY    79  73  82 SE3       30.03F
N LITTLE ROCK  PTCLDY    82  75  79 SW6       30.03F HX  87
JACKSONVILLE   CLEAR     81  74  81 S6        30.03S HX  86
SEARCY           N/A     78  75  90 CALM        N/A
HOT SPRINGS    CLEAR     83  73  72 VRB5      30.05S HX  89
RUSSELLVILLE   CLEAR     78  73  84 CALM      30.03S
CLINTON        FAIR      79  73  83 CALM      30.04S
$$

ARZ036-220500-
EAST ARKANSAS

CITY           SKY/WX    TMP DP  RH WIND       PRES   REMARKS
WEST MEMPHIS   CLEAR     81  76  84 S6        30.02S HX  87
$$

ARZ050-053-066-070-073-220500-
SOUTHWEST ARKANSAS

CITY           SKY/WX    TMP DP  RH WIND       PRES   REMARKS
ARKADELPHIA    FAIR      78  78 100 CALM      30.04R
CAMDEN         CLEAR     79  73  83 S5        30.05R
TEXARKANA      CLEAR     82  72  71 S6        30.04R HX  87
EL DORADO      PTCLDY    77  72  84 SE6       30.07R
DE QUEEN       CLEAR     83  72  69 S6        30.00S HX  88
$$

ARZ056-057-069-220500-
SOUTHEAST ARKANSAS

CITY           SKY/WX    TMP DP  RH WIND       PRES   REMARKS
PINE BLUFF     CLEAR     77  74  90 S3        30.04S
STUTTGART      CLEAR     81  73  78 S8        30.04F HX  85
MONTICELLO     CLEAR     80  72  76 S6        30.06R

$$




USA.gov is the U.S. government's official web portal to all federal, state and local government web resources and services.